This is the latest recevied weather packets stored in our database for station/object KE8GJZ-2. If no packets are shown the sender has not sent any weather packets the latest 10 day(s).
| Time | Temp. | Humidity | Pressure | Rain* | Wind** | Luminosity | Snow |
|---|---|---|---|---|---|---|---|
| 1778125013 | 7.22° C | 66% | 1013.4 hPa | 0 mm | - | 0 W/m² | - |
| 1778124710 | 7.22° C | 66% | 1013.4 hPa | 0 mm | - | 0 W/m² | - |
| 1778124407 | 7.22° C | 65% | 1013.6 hPa | 0 mm | - | 0 W/m² | - |
| 1778124103 | 7.78° C | 65% | 1013.3 hPa | 0 mm | - | 0 W/m² | - |
| 1778123800 | 7.78° C | 63% | 1013.4 hPa | 0 mm | - | 0 W/m² | - |
| 1778123496 | 7.78° C | 62% | 1013.4 hPa | 0 mm | - | 0 W/m² | - |
| 1778123193 | 8.33° C | 60% | 1013.6 hPa | 0 mm | - | 0 W/m² | - |
| 1778122891 | 8.33° C | 60% | 1013.5 hPa | 0 mm | - | 0 W/m² | - |
| 1778122588 | 8.89° C | 60% | 1013.4 hPa | 0 mm | - | 0 W/m² | - |
| 1778122284 | 8.89° C | 59% | 1013.4 hPa | 0 mm | - | 0 W/m² | - |
| 1778121983 | 8.89° C | 58% | 1013.5 hPa | 0 mm | - | 0 W/m² | - |
| 1778121680 | 8.89° C | 59% | 1013.6 hPa | 0 mm | - | 0 W/m² | - |
| 1778121375 | 8.89° C | 60% | 1013.6 hPa | 0 mm | - | 0 W/m² | - |
| 1778121073 | 8.89° C | 60% | 1013.5 hPa | 0 mm | - | 0 W/m² | - |
| 1778120769 | 8.89° C | 57% | 1013.1 hPa | 0 mm | - | 0 W/m² | - |
| 1778120465 | 9.44° C | 57% | 1013.2 hPa | 0 mm | - | 0 W/m² | - |
| 1778120161 | 9.44° C | 56% | 1013.2 hPa | 0 mm | - | 0 W/m² | - |
| 1778119857 | 9.44° C | 56% | 1013.2 hPa | 0 mm | - | 0 W/m² | - |
| 1778119556 | 9.44° C | 56% | 1013 hPa | 0 mm | - | 0 W/m² | - |
| 1778119251 | 9.44° C | 56% | 1013.1 hPa | 0 mm | - | 0 W/m² | - |
| 1778118950 | 9.44° C | 56% | 1013.1 hPa | 0 mm | - | 0 W/m² | - |
| 1778118647 | 9.44° C | 58% | 1013 hPa | 0 mm | - | 0 W/m² | - |
| 1778118344 | 9.44° C | 57% | 1012.9 hPa | 0 mm | - | 0 W/m² | - |
| 1778118039 | 9.44° C | 58% | 1012.8 hPa | 0 mm | - | 0 W/m² | - |
| 1778117737 | 9.44° C | 58% | 1012.9 hPa | 0 mm | - | 0 W/m² | - |
* Rain latest hour (hover to see other rain measurements)
** Current wind speed in m/s (hover to see current wind gust speed)